���t,����,�O�C���x,�����t���O,�O�C���Ύ��x,�����t���O,���ԉ��x,�����t���O,���ԑ��Ύ��x,�����t���O,�g�C������,�����t���O,�L�b�`�����x,�����t���O,��󒲎����x,�����t���O
2004/7/1,0:00,23.5 ,0,91.0 ,0,26.2 ,0,71.9 ,0,25.3 ,0,25.5 ,0,25.3 ,0
2004/7/1,0:15,23.5 ,0,91.0 ,0,26.2 ,0,72.0 ,0,25.4 ,0,25.6 ,0,25.0 ,0
2004/7/1,0:30,23.4 ,0,92.0 ,0,26.2 ,0,72.9 ,0,25.4 ,0,25.6 ,0,24.8 ,0
2004/7/1,0:45,23.4 ,0,93.0 ,0,26.2 ,0,73.6 ,0,25.4 ,0,25.5 ,0,24.7 ,0
2004/7/1,1:00,23.2 ,0,94.0 ,0,26.2 ,0,73.7 ,0,25.4 ,0,25.5 ,0,24.6 ,0
2004/7/1,1:15,23.2 ,0,94.0 ,0,26.2 ,0,73.8 ,0,25.5 ,0,25.5 ,0,24.7 ,0
2004/7/1,1:30,23.2 ,0,95.0 ,0,26.2 ,0,74.6 ,0,25.5 ,0,25.4 ,0,24.8 ,0
2004/7/1,1:45,23.4 ,0,94.0 ,0,26.2 ,0,74.6 ,0,25.5 ,0,25.4 ,0,24.9 ,0
2004/7/1,2:00,23.3 ,0,92.0 ,0,26.2 ,0,74.4 ,0,25.5 ,0,25.4 ,0,25.0 ,0
2004/7/1,2:15,23.5 ,0,90.0 ,0,26.2 ,0,74.4 ,0,25.5 ,0,25.4 ,0,25.0 ,0
2004/7/1,2:30,23.5 ,0,91.0 ,0,26.1 ,0,74.4 ,0,25.6 ,0,25.4 ,0,25.0 ,0
2004/7/1,2:45,23.5 ,0,91.0 ,0,26.1 ,0,74.4 ,0,25.6 ,0,25.4 ,0,25.1 ,0
2004/7/1,3:00,23.4 ,0,88.0 ,0,26.1 ,0,74.3 ,0,25.6 ,0,25.4 ,0,25.2 ,0
2004/7/1,3:15,23.4 ,0,88.0 ,0,26.1 ,0,74.3 ,0,25.6 ,0,25.4 ,0,25.2 ,0
2004/7/1,3:30,23.3 ,0,91.0 ,0,26.0 ,0,74.3 ,0,25.7 ,0,25.4 ,0,25.2 ,0
2004/7/1,3:45,23.3 ,0,92.0 ,0,26.0 ,0,74.4 ,0,25.7 ,0,25.3 ,0,25.1 ,0
2004/7/1,4:00,23.4 ,0,93.0 ,0,26.0 ,0,74.5 ,0,25.7 ,0,25.3 ,0,25.1 ,0
2004/7/1,4:15,23.3 ,0,93.0 ,0,25.9 ,0,74.4 ,0,25.7 ,0,25.2 ,0,25.0 ,0
2004/7/1,4:30,23.3 ,0,93.0 ,0,25.9 ,0,74.5 ,0,25.7 ,0,25.2 ,0,25.0 ,0
2004/7/1,4:45,23.3 ,0,91.0 ,0,26.0 ,0,74.5 ,0,25.7 ,0,25.2 ,0,25.0 ,0
2004/7/1,5:00,23.3 ,0,90.0 ,0,25.9 ,0,74.4 ,0,25.7 ,0,25.2 ,0,25.0 ,0
2004/7/1,5:15,23.4 ,0,89.0 ,0,25.9 ,0,74.3 ,0,25.8 ,0,25.2 ,0,25.0 ,0
2004/7/1,5:30,23.4 ,0,90.0 ,0,25.9 ,0,74.3 ,0,25.8 ,0,25.1 ,0,25.0 ,0
2004/7/1,5:45,23.3 ,0,90.0 ,0,25.9 ,0,74.3 ,0,25.8 ,0,25.1 ,0,25.0 ,0
2004/7/1,6:00,23.4 ,0,88.0 ,0,25.9 ,0,74.1 ,0,25.8 ,0,25.1 ,0,25.0 ,0
2004/7/1,6:15,23.5 ,0,87.0 ,0,25.9 ,0,74.0 ,0,25.8 ,0,25.1 ,0,25.0 ,0
2004/7/1,6:30,23.5 ,0,85.0 ,0,25.9 ,0,73.8 ,0,25.8 ,0,25.1 ,0,25.0 ,0
2004/7/1,6:45,23.8 ,0,84.0 ,0,26.1 ,0,73.6 ,0,25.8 ,0,25.1 ,0,25.1 ,0
2004/7/1,7:00,24.1 ,0,82.0 ,0,26.2 ,0,73.0 ,0,25.8 ,0,25.2 ,0,25.1 ,0
2004/7/1,7:15,24.2 ,0,81.0 ,0,26.2 ,0,72.5 ,0,25.8 ,0,25.2 ,0,25.2 ,0
2004/7/1,7:30,24.5 ,0,81.0 ,0,26.4 ,0,72.0 ,0,25.8 ,0,25.4 ,0,25.3 ,0
2004/7/1,7:45,24.9 ,0,78.0 ,0,26.4 ,0,71.6 ,0,25.9 ,0,25.5 ,0,25.5 ,0
2004/7/1,8:00,25.3 ,0,75.0 ,0,26.6 ,0,71.6 ,0,25.9 ,0,25.6 ,0,25.5 ,0
2004/7/1,8:15,26.5 ,0,72.0 ,0,27.0 ,0,70.1 ,0,25.9 ,0,25.8 ,0,25.6 ,0
2004/7/1,8:30,27.1 ,0,68.0 ,0,27.2 ,0,69.2 ,0,24.6 ,0,26.2 ,0,25.9 ,0
2004/7/1,8:45,27.5 ,0,64.0 ,0,27.3 ,0,69.3 ,0,24.8 ,0,26.3 ,0,26.0 ,0
2004/7/1,9:00,28.2 ,0,63.0 ,0,27.6 ,0,68.2 ,0,24.8 ,0,26.9 ,0,26.2 ,0
2004/7/1,9:15,28.6 ,0,60.0 ,0,28.0 ,0,67.2 ,0,24.0 ,0,27.2 ,0,26.5 ,0
2004/7/1,9:30,28.3 ,0,62.0 ,0,28.4 ,0,66.5 ,0,24.0 ,0,27.4 ,0,26.6 ,0
2004/7/1,9:45,28.8 ,0,62.0 ,0,28.7 ,0,65.4 ,0,24.1 ,0,27.5 ,0,26.7 ,0
2004/7/1,10:00,28.8 ,0,61.0 ,0,28.9 ,0,65.3 ,0,24.1 ,0,27.6 ,0,26.8 ,0
2004/7/1,10:15,30.0 ,0,61.0 ,0,29.2 ,0,65.3 ,0,24.1 ,0,27.8 ,0,27.1 ,0
2004/7/1,10:30,29.7 ,0,54.0 ,0,29.4 ,0,64.5 ,0,24.3 ,0,28.0 ,0,27.3 ,0
2004/7/1,10:45,29.8 ,0,55.0 ,0,29.5 ,0,64.4 ,0,24.4 ,0,28.2 ,0,27.6 ,0
2004/7/1,11:00,30.0 ,0,58.0 ,0,29.6 ,0,64.6 ,0,24.4 ,0,28.5 ,0,27.8 ,0
2004/7/1,11:15,29.9 ,0,58.0 ,0,29.7 ,0,64.5 ,0,24.4 ,0,28.7 ,0,28.0 ,0
2004/7/1,11:30,30.0 ,0,56.0 ,0,29.9 ,0,64.3 ,0,24.5 ,0,28.9 ,0,28.3 ,0
2004/7/1,11:45,30.4 ,0,56.0 ,0,30.1 ,0,64.6 ,0,24.5 ,0,29.0 ,0,28.4 ,0
2004/7/1,12:00,29.7 ,0,58.0 ,0,30.3 ,0,64.4 ,0,24.5 ,0,29.2 ,0,28.6 ,0
2004/7/1,12:15,29.1 ,0,61.0 ,0,30.4 ,0,64.9 ,0,24.5 ,0,29.3 ,0,28.6 ,0
2004/7/1,12:30,29.4 ,0,60.0 ,0,30.4 ,0,64.5 ,0,25.4 ,0,29.5 ,0,28.8 ,0
2004/7/1,12:45,29.5 ,0,60.0 ,0,30.5 ,0,64.1 ,0,25.3 ,0,29.6 ,0,28.8 ,0
2004/7/1,13:00,29.7 ,0,62.0 ,0,30.6 ,0,64.1 ,0,25.3 ,0,29.7 ,0,28.9 ,0
2004/7/1,13:15,30.1 ,0,59.0 ,0,30.7 ,0,63.3 ,0,25.3 ,0,29.8 ,0,29.0 ,0
2004/7/1,13:30,29.7 ,0,59.0 ,0,30.7 ,0,63.6 ,0,25.4 ,0,29.9 ,0,29.1 ,0
2004/7/1,13:45,29.6 ,0,59.0 ,0,30.7 ,0,63.7 ,0,25.4 ,0,30.0 ,0,29.3 ,0
2004/7/1,14:00,29.4 ,0,60.0 ,0,30.8 ,0,63.9 ,0,25.4 ,0,30.1 ,0,29.4 ,0
2004/7/1,14:15,29.1 ,0,60.0 ,0,30.8 ,0,64.0 ,0,25.5 ,0,30.2 ,0,29.5 ,0
2004/7/1,14:30,29.1 ,0,61.0 ,0,30.8 ,0,64.1 ,0,25.5 ,0,30.3 ,0,29.6 ,0
2004/7/1,14:45,29.1 ,0,62.0 ,0,30.8 ,0,64.4 ,0,25.5 ,0,30.3 ,0,29.7 ,0
2004/7/1,15:00,29.0 ,0,64.0 ,0,30.9 ,0,64.5 ,0,25.5 ,0,30.3 ,0,29.7 ,0
2004/7/1,15:15,29.0 ,0,64.0 ,0,30.9 ,0,64.6 ,0,25.6 ,0,30.4 ,0,29.7 ,0
2004/7/1,15:30,29.0 ,0,62.0 ,0,30.9 ,0,64.9 ,0,25.6 ,0,30.4 ,0,29.8 ,0
2004/7/1,15:45,28.8 ,0,65.0 ,0,30.9 ,0,65.1 ,0,25.7 ,0,30.4 ,0,29.8 ,0
2004/7/1,16:00,28.6 ,0,62.0 ,0,30.9 ,0,65.2 ,0,25.7 ,0,30.5 ,0,29.9 ,0
2004/7/1,16:15,28.2 ,0,63.0 ,0,30.8 ,0,65.4 ,0,25.7 ,0,30.5 ,0,29.9 ,0
2004/7/1,16:30,28.2 ,0,65.0 ,0,30.8 ,0,65.6 ,0,25.8 ,0,30.5 ,0,30.0 ,0
2004/7/1,16:45,28.0 ,0,66.0 ,0,30.8 ,0,65.7 ,0,25.8 ,0,30.5 ,0,30.0 ,0
2004/7/1,17:00,28.0 ,0,66.0 ,0,30.8 ,0,65.8 ,0,25.9 ,0,30.5 ,0,29.9 ,0
2004/7/1,17:15,27.7 ,0,65.0 ,0,30.6 ,0,63.6 ,0,25.9 ,0,30.4 ,0,29.9 ,0
2004/7/1,17:30,27.3 ,0,66.0 ,0,30.3 ,0,63.2 ,0,26.0 ,0,30.4 ,0,29.8 ,0
2004/7/1,17:45,27.0 ,0,68.0 ,0,30.2 ,0,63.5 ,0,26.4 ,0,30.3 ,0,29.8 ,0
2004/7/1,18:00,27.1 ,0,70.0 ,0,30.0 ,0,64.1 ,0,26.5 ,0,30.3 ,0,29.7 ,0
2004/7/1,18:15,26.7 ,0,70.0 ,0,25.9 ,0,59.4 ,0,26.5 ,0,30.2 ,0,29.4 ,0
2004/7/1,18:30,26.5 ,0,71.0 ,0,24.8 ,0,57.9 ,0,26.6 ,0,30.0 ,0,29.2 ,0
2004/7/1,18:45,26.4 ,0,70.0 ,0,24.0 ,0,58.4 ,0,26.6 ,0,29.8 ,0,29.0 ,0
2004/7/1,19:00,26.1 ,0,71.0 ,0,24.1 ,0,65.8 ,0,26.0 ,0,29.4 ,0,28.7 ,0
2004/7/1,19:15,26.0 ,0,72.0 ,0,26.9 ,0,61.3 ,0,26.1 ,0,28.8 ,0,28.5 ,0
2004/7/1,19:30,25.7 ,0,77.0 ,0,27.5 ,0,64.8 ,0,26.1 ,0,28.3 ,0,28.2 ,0
2004/7/1,19:45,25.5 ,0,80.0 ,0,26.1 ,0,68.4 ,0,26.1 ,0,27.8 ,0,28.0 ,0
2004/7/1,20:00,25.2 ,0,83.0 ,0,25.9 ,0,68.9 ,0,26.1 ,0,27.7 ,0,27.7 ,0
2004/7/1,20:15,25.0 ,0,85.0 ,0,26.2 ,0,66.4 ,0,26.2 ,0,28.6 ,0,27.5 ,0
2004/7/1,20:30,24.9 ,0,85.0 ,0,26.1 ,0,67.2 ,0,26.2 ,0,28.2 ,0,27.1 ,0
2004/7/1,20:45,24.7 ,0,86.0 ,0,26.0 ,0,67.9 ,0,25.8 ,0,27.9 ,0,26.7 ,0
2004/7/1,21:00,24.5 ,0,87.0 ,0,25.8 ,0,66.3 ,0,25.8 ,0,28.7 ,0,26.4 ,0
2004/7/1,21:15,24.3 ,0,88.0 ,0,25.5 ,0,65.2 ,0,25.8 ,0,28.3 ,0,26.2 ,0
2004/7/1,21:30,24.3 ,0,88.0 ,0,25.4 ,0,64.5 ,0,25.8 ,0,27.7 ,0,26.1 ,0
2004/7/1,21:45,24.1 ,0,88.0 ,0,25.2 ,0,63.7 ,0,25.9 ,0,27.3 ,0,25.9 ,0
2004/7/1,22:00,24.2 ,0,89.0 ,0,25.1 ,0,62.7 ,0,25.9 ,0,27.0 ,0,25.8 ,0
2004/7/1,22:15,24.1 ,0,88.0 ,0,25.1 ,0,67.3 ,0,25.9 ,0,26.7 ,0,25.7 ,0
2004/7/1,22:30,23.9 ,0,88.0 ,0,25.2 ,0,68.6 ,0,25.9 ,0,26.4 ,0,25.6 ,0
2004/7/1,22:45,23.8 ,0,89.0 ,0,25.8 ,0,68.9 ,0,25.9 ,0,26.3 ,0,25.6 ,0
2004/7/1,23:00,23.6 ,0,90.0 ,0,26.0 ,0,70.6 ,0,24.5 ,0,26.2 ,0,25.5 ,0
2004/7/1,23:15,23.6 ,0,90.0 ,0,24.6 ,0,69.6 ,0,24.3 ,0,26.1 ,0,25.5 ,0
2004/7/1,23:30,23.4 ,0,89.0 ,0,25.1 ,0,72.4 ,0,24.3 ,0,26.2 ,0,25.1 ,0
2004/7/1,23:45,23.4 ,0,89.0 ,0,25.4 ,0,72.7 ,0,24.4 ,0,26.2 ,0,25.0 ,0
2004/7/2,0:00,23.3 ,0,90.0 ,0,25.6 ,0,74.5 ,0,24.4 ,0,26.0 ,0,24.8 ,0
2004/7/2,0:15,23.3 ,0,90.0 ,0,25.7 ,0,76.6 ,0,23.8 ,0,25.9 ,0,24.8 ,0
2004/7/2,0:30,23.1 ,0,90.0 ,0,25.7 ,0,77.1 ,0,23.8 ,0,25.9 ,0,24.8 ,0
2004/7/2,0:45,23.0 ,0,90.0 ,0,25.6 ,0,77.6 ,0,23.8 ,0,25.9 ,0,24.9 ,0
2004/7/2,1:00,22.9 ,0,92.0 ,0,25.6 ,0,77.5 ,0,23.9 ,0,26.0 ,0,25.1 ,0
2004/7/2,1:15,22.8 ,0,93.0 ,0,25.5 ,0,77.8 ,0,23.9 ,0,25.9 ,0,24.9 ,0
2004/7/2,1:30,22.8 ,0,94.0 ,0,25.5 ,0,78.0 ,0,23.9 ,0,25.8 ,0,24.9 ,0
2004/7/2,1:45,22.6 ,0,94.0 ,0,25.5 ,0,77.9 ,0,24.0 ,0,25.8 ,0,25.0 ,0
2004/7/2,2:00,22.7 ,0,95.0 ,0,25.5 ,0,77.8 ,0,24.0 ,0,25.7 ,0,24.9 ,0
2004/7/2,2:15,22.6 ,0,96.0 ,0,25.5 ,0,77.7 ,0,24.0 ,0,25.6 ,0,24.8 ,0
2004/7/2,2:30,22.6 ,0,96.0 ,0,25.5 ,0,77.9 ,0,24.1 ,0,25.6 ,0,24.8 ,0
2004/7/2,2:45,22.6 ,0,96.0 ,0,25.5 ,0,78.2 ,0,24.1 ,0,25.6 ,0,24.8 ,0
2004/7/2,3:00,22.6 ,0,97.0 ,0,25.4 ,0,78.6 ,0,24.1 ,0,25.5 ,0,24.8 ,0
2004/7/2,3:15,22.5 ,0,97.0 ,0,25.4 ,0,78.6 ,0,24.2 ,0,25.5 ,0,24.7 ,0
2004/7/2,3:30,22.6 ,0,97.0 ,0,25.3 ,0,78.7 ,0,24.2 ,0,25.4 ,0,24.6 ,0
2004/7/2,3:45,22.6 ,0,98.0 ,0,25.3 ,0,78.6 ,0,24.2 ,0,25.4 ,0,24.5 ,0
2004/7/2,4:00,22.5 ,0,98.0 ,0,25.2 ,0,78.8 ,0,24.2 ,0,25.3 ,0,24.7 ,0
2004/7/2,4:15,22.5 ,0,98.0 ,0,25.2 ,0,78.8 ,0,24.3 ,0,25.3 ,0,24.6 ,0
2004/7/2,4:30,22.5 ,0,99.0 ,0,25.1 ,0,78.9 ,0,24.3 ,0,25.3 ,0,24.4 ,0
2004/7/2,4:45,22.4 ,0,99.0 ,0,25.1 ,0,79.0 ,0,24.3 ,0,25.2 ,0,24.4 ,0
2004/7/2,5:00,22.4 ,0,99.0 ,0,25.1 ,0,79.2 ,0,24.3 ,0,25.2 ,0,24.4 ,0
2004/7/2,5:15,22.4 ,0,99.0 ,0,25.0 ,0,79.2 ,0,24.4 ,0,25.2 ,0,24.4 ,0
2004/7/2,5:30,22.5 ,0,99.0 ,0,25.0 ,0,79.1 ,0,24.4 ,0,25.1 ,0,24.4 ,0
2004/7/2,5:45,22.6 ,0,99.0 ,0,25.3 ,0,78.1 ,0,24.4 ,0,25.1 ,0,24.4 ,0
2004/7/2,6:00,22.8 ,0,99.0 ,0,25.7 ,0,76.5 ,0,25.4 ,0,25.0 ,0,24.3 ,0
2004/7/2,6:15,23.2 ,0,99.0 ,0,26.9 ,0,72.6 ,0,25.4 ,0,25.0 ,0,24.3 ,0
2004/7/2,6:30,23.6 ,0,96.0 ,0,27.6 ,0,69.0 ,0,25.4 ,0,25.0 ,0,24.4 ,0
2004/7/2,6:45,24.4 ,0,91.0 ,0,28.5 ,0,65.6 ,0,25.4 ,0,25.1 ,0,24.5 ,0
2004/7/2,7:00,25.3 ,0,85.0 ,0,30.1 ,0,59.6 ,0,25.4 ,0,25.4 ,0,24.8 ,0
2004/7/2,7:15,26.7 ,0,78.0 ,0,31.3 ,0,55.8 ,0,25.4 ,0,25.6 ,0,25.2 ,0
2004/7/2,7:30,29.1 ,0,65.0 ,0,29.6 ,0,63.0 ,0,25.5 ,0,26.2 ,0,25.8 ,0
2004/7/2,7:45,30.4 ,0,59.0 ,0,29.1 ,0,65.3 ,0,25.5 ,0,27.1 ,0,26.4 ,0
2004/7/2,8:00,30.7 ,0,55.0 ,0,28.8 ,0,66.2 ,0,25.5 ,0,27.6 ,0,26.6 ,0
2004/7/2,8:15,29.0 ,0,60.0 ,0,28.3 ,0,67.8 ,0,25.3 ,0,27.9 ,0,26.6 ,0
2004/7/2,8:30,27.8 ,0,65.0 ,0,28.1 ,0,68.2 ,0,24.8 ,0,27.8 ,0,26.6 ,0
2004/7/2,8:45,27.4 ,0,67.0 ,0,28.0 ,0,68.8 ,0,24.9 ,0,27.8 ,0,26.8 ,0
2004/7/2,9:00,27.3 ,0,69.0 ,0,28.0 ,0,69.3 ,0,24.9 ,0,27.5 ,0,26.8 ,0
2004/7/2,9:15,26.9 ,0,71.0 ,0,28.0 ,0,69.4 ,0,24.9 ,0,27.4 ,0,26.8 ,0
2004/7/2,9:30,26.9 ,0,73.0 ,0,28.1 ,0,70.0 ,0,24.5 ,0,27.3 ,0,26.8 ,0
2004/7/2,9:45,26.9 ,0,73.0 ,0,28.1 ,0,69.5 ,0,24.5 ,0,27.3 ,0,26.9 ,0
2004/7/2,10:00,27.1 ,0,74.0 ,0,28.2 ,0,69.2 ,0,24.6 ,0,27.3 ,0,26.8 ,0
2004/7/2,10:15,27.2 ,0,73.0 ,0,28.4 ,0,68.7 ,0,24.6 ,0,27.5 ,0,27.1 ,0
2004/7/2,10:30,27.7 ,0,67.0 ,0,28.7 ,0,67.6 ,0,24.6 ,0,27.7 ,0,27.2 ,0
2004/7/2,10:45,28.5 ,0,63.0 ,0,29.2 ,0,65.5 ,0,24.6 ,0,27.8 ,0,27.3 ,0
2004/7/2,11:00,29.8 ,0,59.0 ,0,29.3 ,0,64.6 ,0,24.7 ,0,28.0 ,0,27.5 ,0
2004/7/2,11:15,30.1 ,0,56.0 ,0,29.6 ,0,63.3 ,0,24.7 ,0,28.2 ,0,27.7 ,0
2004/7/2,11:30,31.0 ,0,50.0 ,0,29.5 ,0,63.6 ,0,24.7 ,0,28.5 ,0,27.9 ,0
2004/7/2,11:45,31.3 ,0,52.0 ,0,29.7 ,0,63.3 ,0,24.7 ,0,28.7 ,0,28.1 ,0
2004/7/2,12:00,31.7 ,0,51.0 ,0,29.7 ,0,63.2 ,0,24.7 ,0,29.0 ,0,28.2 ,0
2004/7/2,12:15,32.1 ,0,51.0 ,0,29.9 ,0,63.1 ,0,24.7 ,0,29.0 ,0,28.3 ,0
2004/7/2,12:30,31.8 ,0,50.0 ,0,29.9 ,0,63.4 ,0,24.8 ,0,29.1 ,0,28.5 ,0
2004/7/2,12:45,31.3 ,0,55.0 ,0,30.0 ,0,63.6 ,0,24.8 ,0,29.2 ,0,28.6 ,0
2004/7/2,13:00,31.1 ,0,57.0 ,0,30.2 ,0,63.6 ,0,24.8 ,0,29.4 ,0,28.8 ,0
2004/7/2,13:15,30.8 ,0,59.0 ,0,30.3 ,0,63.7 ,0,24.9 ,0,29.5 ,0,28.9 ,0
2004/7/2,13:30,30.9 ,0,59.0 ,0,30.4 ,0,63.9 ,0,24.9 ,0,29.6 ,0,29.2 ,0
2004/7/2,13:45,30.9 ,0,57.0 ,0,30.5 ,0,64.1 ,0,24.9 ,0,29.7 ,0,29.3 ,0
2004/7/2,14:00,30.4 ,0,60.0 ,0,30.6 ,0,64.1 ,0,24.9 ,0,29.8 ,0,29.5 ,0
2004/7/2,14:15,30.5 ,0,60.0 ,0,30.7 ,0,64.3 ,0,25.0 ,0,29.9 ,0,29.6 ,0
2004/7/2,14:30,30.5 ,0,58.0 ,0,30.7 ,0,64.3 ,0,25.0 ,0,30.0 ,0,29.7 ,0
2004/7/2,14:45,30.5 ,0,59.0 ,0,30.8 ,0,64.6 ,0,25.0 ,0,30.2 ,0,29.8 ,0
2004/7/2,15:00,30.6 ,0,60.0 ,0,30.9 ,0,64.6 ,0,25.1 ,0,30.2 ,0,29.9 ,0
2004/7/2,15:15,30.5 ,0,58.0 ,0,31.0 ,0,64.5 ,0,25.1 ,0,30.3 ,0,30.1 ,0
2004/7/2,15:30,30.2 ,0,60.0 ,0,31.1 ,0,64.4 ,0,25.2 ,0,30.4 ,0,30.3 ,0
2004/7/2,15:45,30.3 ,0,60.0 ,0,27.2 ,0,65.0 ,0,25.2 ,0,30.5 ,0,30.3 ,0
2004/7/2,16:00,30.3 ,0,61.0 ,0,25.5 ,0,62.7 ,0,25.3 ,0,30.5 ,0,30.4 ,0
2004/7/2,16:15,30.0 ,0,61.0 ,0,24.3 ,0,58.8 ,0,25.3 ,0,30.6 ,0,30.5 ,0
2004/7/2,16:30,29.8 ,0,62.0 ,0,23.9 ,0,58.6 ,0,25.4 ,0,30.6 ,0,30.5 ,0
2004/7/2,16:45,29.7 ,0,63.0 ,0,27.4 ,0,53.2 ,0,25.6 ,0,29.9 ,0,30.2 ,0
2004/7/2,17:00,29.5 ,0,63.0 ,0,28.3 ,0,55.2 ,0,25.7 ,0,29.3 ,0,30.2 ,0
2004/7/2,17:15,29.5 ,0,64.0 ,0,28.6 ,0,56.9 ,0,25.7 ,0,29.0 ,0,30.1 ,0
2004/7/2,17:30,29.2 ,0,64.0 ,0,28.9 ,0,58.1 ,0,25.8 ,0,28.9 ,0,30.1 ,0
2004/7/2,17:45,29.2 ,0,63.0 ,0,29.1 ,0,58.5 ,0,25.8 ,0,29.2 ,0,30.1 ,0
2004/7/2,18:00,28.9 ,0,64.0 ,0,29.3 ,0,59.0 ,0,25.8 ,0,29.5 ,0,30.0 ,0
2004/7/2,18:15,28.8 ,0,65.0 ,0,29.4 ,0,59.9 ,0,25.9 ,0,29.6 ,0,30.0 ,0
2004/7/2,18:30,28.7 ,0,66.0 ,0,29.5 ,0,60.4 ,0,26.0 ,0,29.8 ,0,30.0 ,0
2004/7/2,18:45,28.6 ,0,66.0 ,0,29.5 ,0,62.5 ,0,26.0 ,0,29.8 ,0,29.9 ,0
2004/7/2,19:00,28.5 ,0,67.0 ,0,29.5 ,0,63.7 ,0,26.1 ,0,29.8 ,0,29.9 ,0
2004/7/2,19:15,28.3 ,0,68.0 ,0,29.5 ,0,64.5 ,0,26.1 ,0,29.8 ,0,29.9 ,0
2004/7/2,19:30,28.2 ,0,70.0 ,0,29.5 ,0,65.0 ,0,26.1 ,0,29.7 ,0,29.8 ,0
2004/7/2,19:45,28.0 ,0,70.0 ,0,29.5 ,0,65.5 ,0,26.2 ,0,29.7 ,0,29.6 ,0
2004/7/2,20:00,28.0 ,0,70.0 ,0,29.5 ,0,66.0 ,0,26.3 ,0,29.6 ,0,29.5 ,0
2004/7/2,20:15,27.9 ,0,71.0 ,0,27.7 ,0,64.7 ,0,26.3 ,0,29.5 ,0,29.4 ,0
2004/7/2,20:30,27.9 ,0,72.0 ,0,24.6 ,0,66.4 ,0,26.4 ,0,29.4 ,0,29.3 ,0
2004/7/2,20:45,27.8 ,0,73.0 ,0,24.2 ,0,67.0 ,0,26.4 ,0,29.3 ,0,29.2 ,0
2004/7/2,21:00,27.9 ,0,73.0 ,0,23.5 ,0,63.2 ,0,26.5 ,0,29.2 ,0,29.2 ,0
2004/7/2,21:15,27.9 ,0,74.0 ,0,24.9 ,0,64.5 ,0,26.7 ,0,28.9 ,0,29.1 ,0
2004/7/2,21:30,27.9 ,0,73.0 ,0,23.4 ,0,63.3 ,0,25.6 ,0,28.8 ,0,29.0 ,0
2004/7/2,21:45,27.7 ,0,74.0 ,0,22.9 ,0,64.7 ,0,25.7 ,0,28.6 ,0,29.0 ,0
2004/7/2,22:00,27.8 ,0,73.0 ,0,22.7 ,0,65.3 ,0,25.7 ,0,28.1 ,0,28.9 ,0
2004/7/2,22:15,27.5 ,0,75.0 ,0,24.5 ,0,68.5 ,0,25.7 ,0,27.9 ,0,28.8 ,0
2004/7/2,22:30,27.4 ,0,77.0 ,0,24.6 ,0,67.1 ,0,25.8 ,0,27.4 ,0,28.7 ,0
2004/7/2,22:45,27.4 ,0,78.0 ,0,24.7 ,0,68.4 ,0,25.8 ,0,27.1 ,0,28.6 ,0
2004/7/2,23:00,27.2 ,0,79.0 ,0,25.0 ,0,71.1 ,0,25.9 ,0,27.2 ,0,28.4 ,0
2004/7/2,23:15,27.0 ,0,82.0 ,0,24.5 ,0,68.0 ,0,25.9 ,0,27.2 ,0,28.3 ,0
2004/7/2,23:30,27.0 ,0,84.0 ,0,24.2 ,0,66.1 ,0,25.9 ,0,27.2 ,0,28.3 ,0
2004/7/2,23:45,27.0 ,0,83.0 ,0,23.9 ,0,64.1 ,0,26.0 ,0,27.2 ,0,28.2 ,0
2004/7/3,0:00,27.1 ,0,82.0 ,0,24.8 ,0,71.6 ,0,26.0 ,0,27.2 ,0,28.0 ,0
2004/7/3,0:15,27.1 ,0,82.0 ,0,24.8 ,0,71.3 ,0,26.1 ,0,27.1 ,0,27.9 ,0
2004/7/3,0:30,27.3 ,0,82.0 ,0,24.9 ,0,71.5 ,0,26.1 ,0,27.0 ,0,27.7 ,0
2004/7/3,0:45,27.2 ,0,82.0 ,0,25.8 ,0,76.7 ,0,25.0 ,0,26.9 ,0,27.9 ,0
2004/7/3,1:00,27.2 ,0,83.0 ,0,26.4 ,0,75.5 ,0,25.1 ,0,27.0 ,0,28.0 ,0
2004/7/3,1:15,27.3 ,0,82.0 ,0,26.7 ,0,74.0 ,0,25.1 ,0,27.1 ,0,28.1 ,0
2004/7/3,1:30,27.2 ,0,83.0 ,0,26.8 ,0,73.2 ,0,24.8 ,0,27.2 ,0,28.1 ,0
2004/7/3,1:45,27.2 ,0,83.0 ,0,27.0 ,0,72.8 ,0,24.8 ,0,27.4 ,0,28.2 ,0
2004/7/3,2:00,27.2 ,0,86.0 ,0,27.1 ,0,72.9 ,0,24.9 ,0,27.5 ,0,28.2 ,0
2004/7/3,2:15,27.1 ,0,87.0 ,0,27.2 ,0,72.5 ,0,24.9 ,0,27.6 ,0,28.2 ,0
2004/7/3,2:30,27.2 ,0,86.0 ,0,27.3 ,0,72.2 ,0,24.9 ,0,27.6 ,0,28.2 ,0
2004/7/3,2:45,27.2 ,0,86.0 ,0,27.3 ,0,72.1 ,0,25.0 ,0,27.6 ,0,28.2 ,0
2004/7/3,3:00,27.1 ,0,87.0 ,0,27.3 ,0,72.2 ,0,25.0 ,0,27.6 ,0,28.1 ,0
2004/7/3,3:15,27.0 ,0,87.0 ,0,27.4 ,0,72.2 ,0,25.1 ,0,27.6 ,0,28.2 ,0
2004/7/3,3:30,27.0 ,0,87.0 ,0,27.4 ,0,72.0 ,0,25.1 ,0,27.6 ,0,28.2 ,0
2004/7/3,3:45,27.0 ,0,88.0 ,0,27.5 ,0,71.9 ,0,25.2 ,0,27.6 ,0,28.2 ,0
2004/7/3,4:00,27.0 ,0,89.0 ,0,27.5 ,0,72.0 ,0,25.2 ,0,27.6 ,0,28.2 ,0
2004/7/3,4:15,26.9 ,0,91.0 ,0,27.5 ,0,72.0 ,0,25.2 ,0,27.6 ,0,28.2 ,0
2004/7/3,4:30,26.9 ,0,92.0 ,0,27.6 ,0,72.0 ,0,25.3 ,0,27.6 ,0,28.2 ,0
2004/7/3,4:45,26.9 ,0,90.0 ,0,27.6 ,0,72.0 ,0,25.3 ,0,27.6 ,0,28.1 ,0
2004/7/3,5:00,26.8 ,0,89.0 ,0,27.6 ,0,72.3 ,0,25.4 ,0,27.6 ,0,28.1 ,0
2004/7/3,5:15,26.7 ,0,90.0 ,0,27.5 ,0,72.8 ,0,25.4 ,0,27.6 ,0,28.1 ,0
2004/7/3,5:30,26.6 ,0,91.0 ,0,27.6 ,0,72.8 ,0,25.4 ,0,27.6 ,0,28.0 ,0
2004/7/3,5:45,26.5 ,0,91.0 ,0,27.6 ,0,72.6 ,0,25.5 ,0,27.5 ,0,28.0 ,0
2004/7/3,6:00,26.6 ,0,92.0 ,0,27.7 ,0,72.1 ,0,25.5 ,0,27.5 ,0,27.8 ,0
2004/7/3,6:15,26.7 ,0,91.0 ,0,27.9 ,0,71.6 ,0,25.6 ,0,27.5 ,0,27.8 ,0
2004/7/3,6:30,26.8 ,0,90.0 ,0,28.0 ,0,71.6 ,0,25.6 ,0,27.5 ,0,27.9 ,0
2004/7/3,6:45,26.9 ,0,91.0 ,0,28.0 ,0,71.9 ,0,25.6 ,0,27.5 ,0,27.9 ,0
2004/7/3,7:00,27.0 ,0,91.0 ,0,28.5 ,0,69.4 ,0,25.7 ,0,27.5 ,0,27.9 ,0
2004/7/3,7:15,27.3 ,0,89.0 ,0,28.5 ,0,69.7 ,0,25.7 ,0,27.6 ,0,27.9 ,0
2004/7/3,7:30,27.8 ,0,87.0 ,0,28.6 ,0,70.6 ,0,25.7 ,0,27.6 ,0,27.8 ,0
2004/7/3,7:45,27.9 ,0,86.0 ,0,29.2 ,0,74.9 ,0,26.0 ,0,27.8 ,0,28.0 ,0
2004/7/3,8:00,29.5 ,0,77.0 ,0,29.3 ,0,76.6 ,0,26.1 ,0,28.0 ,0,28.2 ,0
2004/7/3,8:15,30.2 ,0,72.0 ,0,29.5 ,0,76.7 ,0,24.8 ,0,28.2 ,0,28.3 ,0
2004/7/3,8:30,30.0 ,0,74.0 ,0,30.4 ,0,72.0 ,0,24.9 ,0,28.5 ,0,28.5 ,0
2004/7/3,8:45,31.2 ,0,66.0 ,0,29.9 ,0,74.5 ,0,24.9 ,0,28.8 ,0,28.6 ,0
2004/7/3,9:00,30.2 ,0,69.0 ,0,29.9 ,0,74.3 ,0,25.8 ,0,29.1 ,0,28.8 ,0
2004/7/3,9:15,30.3 ,0,70.0 ,0,31.0 ,0,69.5 ,0,24.4 ,0,29.3 ,0,29.0 ,0
2004/7/3,9:30,31.9 ,0,63.0 ,0,30.5 ,0,71.3 ,0,24.4 ,0,29.5 ,0,29.2 ,0
2004/7/3,9:45,30.9 ,0,67.0 ,0,31.1 ,0,68.9 ,0,24.4 ,0,29.5 ,0,29.2 ,0
2004/7/3,10:00,31.6 ,0,64.0 ,0,31.1 ,0,68.9 ,0,24.5 ,0,29.7 ,0,29.5 ,0
2004/7/3,10:15,33.0 ,0,59.0 ,0,31.7 ,0,66.3 ,0,24.5 ,0,29.9 ,0,29.7 ,0
2004/7/3,10:30,32.6 ,0,57.0 ,0,31.7 ,0,66.2 ,0,24.3 ,0,30.0 ,0,29.8 ,0
2004/7/3,10:45,33.6 ,0,55.0 ,0,31.9 ,0,65.1 ,0,24.3 ,0,30.0 ,0,29.8 ,0
2004/7/3,11:00,34.3 ,0,51.0 ,0,31.9 ,0,65.1 ,0,24.4 ,0,30.2 ,0,30.0 ,0
2004/7/3,11:15,33.9 ,0,50.0 ,0,31.8 ,0,65.4 ,0,24.4 ,0,30.3 ,0,30.1 ,0
2004/7/3,11:30,33.6 ,0,50.0 ,0,32.0 ,0,63.7 ,0,24.5 ,0,30.5 ,0,30.4 ,0
2004/7/3,11:45,34.3 ,0,48.0 ,0,32.0 ,0,63.9 ,0,24.5 ,0,30.8 ,0,30.6 ,0
2004/7/3,12:00,33.5 ,0,53.0 ,0,32.2 ,0,63.7 ,0,24.6 ,0,31.0 ,0,30.6 ,0
2004/7/3,12:15,33.3 ,0,54.0 ,0,32.3 ,0,63.8 ,0,24.6 ,0,31.1 ,0,30.7 ,0
2004/7/3,12:30,33.1 ,0,56.0 ,0,32.1 ,0,65.0 ,0,24.7 ,0,31.3 ,0,31.0 ,0
2004/7/3,12:45,32.0 ,0,58.0 ,0,31.9 ,0,65.6 ,0,24.7 ,0,31.5 ,0,31.3 ,0
2004/7/3,13:00,31.2 ,0,63.0 ,0,31.8 ,0,66.1 ,0,24.8 ,0,31.5 ,0,31.4 ,0
2004/7/3,13:15,30.8 ,0,64.0 ,0,31.7 ,0,66.7 ,0,24.8 ,0,31.5 ,0,31.3 ,0
2004/7/3,13:30,30.6 ,0,66.0 ,0,31.6 ,0,67.5 ,0,24.9 ,0,31.4 ,0,31.1 ,0
2004/7/3,13:45,29.9 ,0,75.0 ,0,31.9 ,0,66.9 ,0,24.9 ,0,31.3 ,0,31.1 ,0
2004/7/3,14:00,30.2 ,0,68.0 ,0,32.1 ,0,66.4 ,0,25.0 ,0,31.1 ,0,30.9 ,0
2004/7/3,14:15,30.2 ,0,68.0 ,0,32.0 ,0,66.4 ,0,25.1 ,0,31.1 ,0,30.9 ,0
2004/7/3,14:30,30.5 ,0,67.0 ,0,32.1 ,0,66.2 ,0,25.1 ,0,31.2 ,0,31.0 ,0
2004/7/3,14:45,31.0 ,0,65.0 ,0,32.2 ,0,65.9 ,0,25.2 ,0,31.4 ,0,31.0 ,0
2004/7/3,15:00,31.6 ,0,64.0 ,0,32.2 ,0,66.1 ,0,25.3 ,0,31.5 ,0,31.1 ,0
2004/7/3,15:15,31.7 ,0,61.0 ,0,32.2 ,0,66.2 ,0,25.3 ,0,31.5 ,0,31.3 ,0
2004/7/3,15:30,31.7 ,0,64.0 ,0,32.2 ,0,66.4 ,0,25.4 ,0,31.6 ,0,31.6 ,0
2004/7/3,15:45,31.6 ,0,64.0 ,0,32.2 ,0,66.7 ,0,25.5 ,0,31.7 ,0,31.8 ,0
2004/7/3,16:00,31.6 ,0,64.0 ,0,32.2 ,0,66.9 ,0,25.5 ,0,31.8 ,0,31.9 ,0
2004/7/3,16:15,31.4 ,0,66.0 ,0,32.3 ,0,66.6 ,0,25.6 ,0,31.8 ,0,31.9 ,0
2004/7/3,16:30,31.4 ,0,65.0 ,0,32.4 ,0,66.5 ,0,25.7 ,0,31.8 ,0,31.8 ,0
2004/7/3,16:45,31.4 ,0,66.0 ,0,32.4 ,0,66.5 ,0,25.7 ,0,31.7 ,0,31.7 ,0
2004/7/3,17:00,31.5 ,0,64.0 ,0,32.4 ,0,66.7 ,0,25.8 ,0,31.8 ,0,31.8 ,0
2004/7/3,17:15,31.4 ,0,64.0 ,0,32.4 ,0,66.7 ,0,25.9 ,0,31.9 ,0,31.7 ,0
2004/7/3,17:30,31.6 ,0,62.0 ,0,32.5 ,0,66.7 ,0,26.0 ,0,31.9 ,0,31.8 ,0
2004/7/3,17:45,31.5 ,0,63.0 ,0,32.5 ,0,66.7 ,0,26.0 ,0,31.9 ,0,31.8 ,0
2004/7/3,18:00,31.4 ,0,63.0 ,0,32.4 ,0,66.7 ,0,26.1 ,0,32.1 ,0,31.9 ,0
2004/7/3,18:15,31.5 ,0,62.0 ,0,32.4 ,0,66.9 ,0,26.1 ,0,32.3 ,0,32.0 ,0
2004/7/3,18:30,31.7 ,0,62.0 ,0,32.4 ,0,67.0 ,0,26.2 ,0,32.5 ,0,32.0 ,0
2004/7/3,18:45,31.4 ,0,60.0 ,0,32.3 ,0,66.6 ,0,26.3 ,0,32.5 ,0,32.1 ,0
2004/7/3,19:00,31.4 ,0,64.0 ,0,32.3 ,0,66.8 ,0,26.4 ,0,32.4 ,0,32.3 ,0
2004/7/3,19:15,31.4 ,0,63.0 ,0,32.2 ,0,67.2 ,0,26.4 ,0,32.3 ,0,32.1 ,0
2004/7/3,19:30,31.1 ,0,64.0 ,0,32.1 ,0,67.6 ,0,26.5 ,0,32.1 ,0,32.0 ,0
2004/7/3,19:45,30.8 ,0,67.0 ,0,32.1 ,0,68.1 ,0,26.5 ,0,32.0 ,0,31.9 ,0
2004/7/3,20:00,30.5 ,0,67.0 ,0,31.9 ,0,68.6 ,0,26.6 ,0,31.9 ,0,31.9 ,0
2004/7/3,20:15,30.3 ,0,67.0 ,0,31.9 ,0,68.8 ,0,26.7 ,0,31.8 ,0,31.8 ,0
2004/7/3,20:30,30.2 ,0,68.0 ,0,31.7 ,0,69.2 ,0,26.7 ,0,31.6 ,0,31.6 ,0
2004/7/3,20:45,30.0 ,0,69.0 ,0,28.4 ,0,61.0 ,0,26.8 ,0,31.4 ,0,31.5 ,0
2004/7/3,21:00,29.7 ,0,70.0 ,0,27.3 ,0,60.4 ,0,26.8 ,0,31.2 ,0,31.3 ,0
2004/7/3,21:15,29.7 ,0,71.0 ,0,27.0 ,0,60.4 ,0,26.9 ,0,31.1 ,0,31.2 ,0
2004/7/3,21:30,29.5 ,0,70.0 ,0,27.2 ,0,57.7 ,0,27.0 ,0,30.8 ,0,30.9 ,0
2004/7/3,21:45,29.3 ,0,75.0 ,0,27.4 ,0,57.6 ,0,27.0 ,0,30.6 ,0,30.8 ,0
2004/7/3,22:00,29.1 ,0,77.0 ,0,27.4 ,0,59.3 ,0,27.0 ,0,30.0 ,0,30.8 ,0
2004/7/3,22:15,28.7 ,0,80.0 ,0,27.0 ,0,57.0 ,0,27.1 ,0,29.6 ,0,30.6 ,0
2004/7/3,22:30,28.5 ,0,84.0 ,0,26.5 ,0,60.6 ,0,27.2 ,0,29.3 ,0,30.5 ,0
2004/7/3,22:45,28.3 ,0,83.0 ,0,26.4 ,0,63.7 ,0,27.2 ,0,29.2 ,0,30.2 ,0
2004/7/3,23:00,28.2 ,0,84.0 ,0,26.5 ,0,67.6 ,0,27.2 ,0,28.9 ,0,30.0 ,0
2004/7/3,23:15,28.2 ,0,85.0 ,0,26.0 ,0,66.7 ,0,27.3 ,0,28.8 ,0,29.8 ,0
2004/7/3,23:30,28.0 ,0,85.0 ,0,25.7 ,0,66.9 ,0,27.3 ,0,28.7 ,0,29.7 ,0
2004/7/3,23:45,27.9 ,0,83.0 ,0,26.1 ,0,69.9 ,0,25.7 ,0,28.7 ,0,29.6 ,0
2004/7/4,0:00,27.9 ,0,82.0 ,0,27.6 ,0,73.0 ,0,25.7 ,0,28.6 ,0,29.5 ,0
2004/7/4,0:15,28.0 ,0,80.0 ,0,28.0 ,0,72.6 ,0,25.8 ,0,28.5 ,0,29.3 ,0
2004/7/4,0:30,28.0 ,0,80.0 ,0,28.2 ,0,75.1 ,0,25.8 ,0,28.5 ,0,29.2 ,0
2004/7/4,0:45,27.9 ,0,81.0 ,0,28.3 ,0,75.4 ,0,25.9 ,0,28.6 ,0,29.3 ,0
2004/7/4,1:00,27.8 ,0,81.0 ,0,28.4 ,0,75.0 ,0,25.9 ,0,28.7 ,0,29.3 ,0
2004/7/4,1:15,27.6 ,0,83.0 ,0,28.4 ,0,74.5 ,0,26.0 ,0,28.8 ,0,29.3 ,0
2004/7/4,1:30,27.4 ,0,84.0 ,0,28.5 ,0,73.9 ,0,26.0 ,0,28.9 ,0,29.1 ,0
2004/7/4,1:45,27.4 ,0,83.0 ,0,28.5 ,0,74.1 ,0,26.0 ,0,28.8 ,0,29.2 ,0
2004/7/4,2:00,27.4 ,0,84.0 ,0,28.5 ,0,74.4 ,0,26.1 ,0,28.8 ,0,29.2 ,0
2004/7/4,2:15,27.3 ,0,85.0 ,0,28.5 ,0,74.1 ,0,26.1 ,0,28.8 ,0,29.0 ,0
2004/7/4,2:30,27.1 ,0,85.0 ,0,28.5 ,0,74.0 ,0,26.2 ,0,28.7 ,0,29.0 ,0
2004/7/4,2:45,26.9 ,0,87.0 ,0,28.5 ,0,73.9 ,0,26.2 ,0,28.7 ,0,28.8 ,0
2004/7/4,3:00,26.8 ,0,88.0 ,0,28.5 ,0,73.9 ,0,26.3 ,0,28.6 ,0,28.8 ,0
2004/7/4,3:15,26.9 ,0,87.0 ,0,28.5 ,0,74.5 ,0,26.3 ,0,28.6 ,0,28.6 ,0
2004/7/4,3:30,26.9 ,0,87.0 ,0,28.5 ,0,74.5 ,0,26.3 ,0,28.6 ,0,28.7 ,0
2004/7/4,3:45,26.9 ,0,87.0 ,0,28.4 ,0,75.0 ,0,26.4 ,0,28.6 ,0,28.6 ,0
2004/7/4,4:00,26.9 ,0,87.0 ,0,28.4 ,0,75.7 ,0,26.4 ,0,28.5 ,0,28.5 ,0
2004/7/4,4:15,26.7 ,0,88.0 ,0,28.4 ,0,76.3 ,0,26.4 ,0,28.4 ,0,28.4 ,0
2004/7/4,4:30,26.6 ,0,91.0 ,0,28.4 ,0,77.3 ,0,26.5 ,0,28.4 ,0,28.2 ,0
2004/7/4,4:45,26.5 ,0,92.0 ,0,28.3 ,0,78.1 ,0,26.5 ,0,28.3 ,0,28.0 ,0
2004/7/4,5:00,26.5 ,0,93.0 ,0,28.4 ,0,78.0 ,0,26.5 ,0,28.3 ,0,27.9 ,0
2004/7/4,5:15,26.6 ,0,92.0 ,0,28.4 ,0,77.9 ,0,26.6 ,0,28.2 ,0,27.7 ,0
2004/7/4,5:30,26.7 ,0,92.0 ,0,28.4 ,0,78.0 ,0,26.6 ,0,28.2 ,0,27.6 ,0
2004/7/4,5:45,26.9 ,0,87.0 ,0,28.4 ,0,77.5 ,0,26.7 ,0,28.2 ,0,27.6 ,0
2004/7/4,6:00,27.1 ,0,85.0 ,0,28.5 ,0,77.0 ,0,26.7 ,0,28.2 ,0,27.6 ,0
2004/7/4,6:15,27.2 ,0,83.0 ,0,28.9 ,0,75.7 ,0,26.7 ,0,28.1 ,0,27.6 ,0
2004/7/4,6:30,27.8 ,0,82.0 ,0,31.4 ,0,65.7 ,0,26.7 ,0,28.2 ,0,27.8 ,0
2004/7/4,6:45,29.2 ,0,73.0 ,0,32.8 ,0,60.7 ,0,26.8 ,0,28.2 ,0,27.9 ,0
2004/7/4,7:00,30.0 ,0,67.0 ,0,33.6 ,0,58.2 ,0,26.8 ,0,28.3 ,0,27.9 ,0
2004/7/4,7:15,30.8 ,0,63.0 ,0,32.7 ,0,60.8 ,0,26.8 ,0,28.8 ,0,29.0 ,0
2004/7/4,7:30,30.2 ,0,64.0 ,0,33.5 ,0,59.2 ,0,26.9 ,0,29.5 ,0,29.8 ,0
2004/7/4,7:45,31.4 ,0,60.0 ,0,33.2 ,0,59.4 ,0,26.9 ,0,30.2 ,0,30.0 ,0
2004/7/4,8:00,30.5 ,0,62.0 ,0,32.8 ,0,60.5 ,0,26.9 ,0,30.5 ,0,29.8 ,0
2004/7/4,8:15,30.2 ,0,63.0 ,0,31.5 ,0,64.4 ,0,26.9 ,0,30.4 ,0,29.6 ,0
2004/7/4,8:30,30.8 ,0,61.0 ,0,32.0 ,0,63.0 ,0,27.0 ,0,30.5 ,0,29.6 ,0
2004/7/4,8:45,32.3 ,0,54.0 ,0,32.1 ,0,62.4 ,0,26.1 ,0,30.4 ,0,29.5 ,0
2004/7/4,9:00,32.6 ,0,52.0 ,0,32.0 ,0,63.1 ,0,26.2 ,0,30.3 ,0,29.7 ,0
2004/7/4,9:15,32.0 ,0,55.0 ,0,31.9 ,0,63.6 ,0,26.2 ,0,30.4 ,0,29.9 ,0
2004/7/4,9:30,31.5 ,0,58.0 ,0,31.9 ,0,64.1 ,0,26.3 ,0,30.5 ,0,30.2 ,0
2004/7/4,9:45,31.6 ,0,57.0 ,0,31.8 ,0,63.5 ,0,26.3 ,0,30.7 ,0,30.3 ,0
2004/7/4,10:00,31.3 ,0,58.0 ,0,31.9 ,0,63.4 ,0,25.3 ,0,30.9 ,0,30.4 ,0
2004/7/4,10:15,31.3 ,0,59.0 ,0,32.0 ,0,63.6 ,0,25.3 ,0,30.9 ,0,30.4 ,0
2004/7/4,10:30,31.5 ,0,58.0 ,0,32.0 ,0,64.0 ,0,25.4 ,0,31.0 ,0,30.5 ,0
2004/7/4,10:45,31.2 ,0,59.0 ,0,31.8 ,0,64.4 ,0,25.4 ,0,31.2 ,0,30.5 ,0
2004/7/4,11:00,30.8 ,0,60.0 ,0,31.8 ,0,64.8 ,0,24.4 ,0,31.3 ,0,30.6 ,0